User: anonymous   Login
Location: Boussy-Saint-Antoine
(48.6830°N, 2.5330°E)
Time: 04:57:24
(UTC+02:00)
Language:

XW-2C - Orbit

View from above orbital plane
View from above orbital plane
View from above satellite
View from above satellite

Ground track
Ground track

The orbit data is extracted from the following two-line orbital elements,

1 40906U 15049H   19286.71352568  .00000569  00000-0  33196-4 0  9997
2 40906  97.4713 286.8834 0015494 148.1732 286.2459 15.15779305224726
Epoch (UTC): 13 October 2019 17:07:28
Eccentricity: 0.0015494
inclination: 97.4713°
perigee height: 508 km
apogee height: 529 km
right ascension of ascending node: 286.8834°
argument of perigee: 148.1732°
revolutions per day: 15.15779305
mean anomaly at epoch: 286.2459°
orbit number at epoch: 22472

The dashed part of the orbit path shows where the satellite is in the earth's shadow,  

DLR